| time (UTC) | temp C | wind direction | speed KPH | gust KPH | rain 1hr cm | rain 24hr cm | rain mn cm | humidity % | barometer mb |
| 20260504204502 | 16 | 30 | 8.0 | 0.0 | 0.00 | 0.00 | 0.00 | 66 | 1006.4 |
| 20260504203002 | 16 | 20 | 6.4 | 0.0 | 0.00 | 0.00 | 0.00 | 66 | 1006.4 |
| 20260504201502 | 16 | 360 | 6.4 | 0.0 | 0.00 | 0.00 | 0.00 | 68 | 1006.3 |
| 20260504200002 | 16 | 360 | 6.4 | 0.0 | 0.00 | 0.00 | 0.00 | 68 | 1006.3 |
| 20260504194502 | 17 | 360 | 6.4 | 0.0 | 0.00 | 0.00 | 0.00 | 66 | 1006.2 |
| 20260504193002 | 17 | 350 | 8.0 | 0.0 | 0.00 | 0.00 | 0.00 | 66 | 1006.2 |
| 20260504191502 | 17 | 350 | 8.0 | 0.0 | 0.00 | 0.00 | 0.00 | 65 | 1006.1 |
| 20260504190002 | 17 | 340 | 9.7 | 0.0 | 0.00 | 0.00 | 0.00 | 65 | 1006.1 |
| 20260504184502 | 18 | 340 | 9.7 | 0.0 | 0.00 | 0.00 | 0.00 | 62 | 1006.0 |
| 20260504183002 | 18 | 340 | 9.7 | 0.0 | 0.00 | 0.00 | 0.00 | 62 | 1006.0 |
| 20260504181503 | 20 | 340 | 9.7 | 0.0 | 0.00 | 0.00 | 0.00 | 58 | 1005.9 |
| 20260504180002 | 20 | 350 | 8.0 | 0.0 | 0.00 | 0.00 | 0.00 | 58 | 1005.9 |
| 20260504174502 | 20 | 350 | 8.0 | 0.0 | 0.00 | 0.00 | 0.00 | 55 | 1005.9 |
| 20260504173003 | 20 | 320 | 9.7 | 0.0 | 0.00 | 0.00 | 0.00 | 55 | 1005.9 |
| 20260504171502 | 20 | 320 | 9.7 | 0.0 | 0.00 | 0.00 | 0.00 | 54 | 1005.8 |
| 20260504081502 | 18 | 280 | 11.3 | 0.0 | 0.00 | 0.00 | 0.00 | 62 | 1007.0 |
| 20260504050002 | 16 | 230 | 6.4 | 0.0 | 0.00 | 0.00 | 0.00 | 63 | 1005.9 |
| 20260504044502 | 16 | 230 | 1.6 | 0.0 | 0.00 | 0.00 | 0.00 | 63 | 1005.5 |
| 20260504043003 | 16 | 230 | 1.6 | 0.0 | 0.00 | 0.00 | 0.00 | 63 | 1005.5 |
| 20260504041502 | 16 | 250 | 1.6 | 0.0 | 0.00 | 0.00 | 0.00 | 61 | 1005.8 |
| 20260504040002 | 16 | 250 | 1.6 | 0.0 | 0.00 | 0.00 | 0.00 | 61 | 1005.8 |
| 20260504034502 | 17 | 250 | 4.8 | 0.0 | 0.00 | 0.00 | 0.00 | 52 | 1006.0 |
| 20260504033002 | 17 | 250 | 4.8 | 0.0 | 0.00 | 0.00 | 0.00 | 52 | 1006.0 |
| 20260504031502 | 17 | 240 | 4.8 | 0.0 | 0.00 | 0.00 | 0.00 | 51 | 1006.1 |
| 20260504030003 | 17 | 240 | 4.8 | 0.0 | 0.00 | 0.00 | 0.00 | 51 | 1006.1 |